Vertical_Velocity
-1 -1 -2 1 4 -2 1 2 1 -2 -0 6 -0 -3 2 5 6 10 12 5 4 1 1 -0 1 3 4 3 2 4 2 2 2 1 -0 1 1 -1 0 -1 -1 -1 -1 1 1 0 -1 -1 1
-1 -1 -1 -1 -2 -1 1 -1 -0 -1 2 1 -2 1 -5 12 2 2 -6 1 8 4 8 7 3 1 -3 -4 -2 -0 0 3 3 -1 2 -1 1 0 1 -2 -1 -1 -4 -2 0 1 -0 1 1
-2 -1 -1 -3 -1 -1 -1 -0 -1 -1 1 1 -0 0 2 1 7 5 9 6 6 2 1 0 3 2 5 5 3 5 5 4 2 3 -0 1 -2 2 2 3 0 -2 -1 0 -1 0 1 1 -1
-3 -1 -5 -3 1 1 1 1 1 0 3 2 3 -1 -1 12 -1 4 9 4 6 3 1 -2 -2 -3 -0 -1 3 6 7 6 2 3 -0 -2 2 -2 4 3 2 -1 -0 -1 1 1 0 0 1
-2 -2 -2 -1 0 0 -1 2 2 0 1 1 3 8 1 4 7 12 -0 5 -0 1 4 2 1 -3 -2 -1 2 1 1 3 8 8 6 2 1 1 2 3 2 1 0 0 -1 -2 1 -2 -1
-3 -2 -1 -0 -0 -0 -0 0 0 -0 3 2 -6 -2 2 4 11 -0 -0 -1 -1 -1 1 1 -0 0 -0 -1 -0 -0 -3 -0 4 0 2 5 3 3 1 2 2 0 1 3 2 -1 -0 -0 -1
-4 -2 -0 -0 -0 0 1 -1 -0 1 1 1 4 -2 2 0 2 -2 -1 4 0 -5 0 2 -2 -3 -0 2 -2 -4 -3 0 -3 8 3 1 -0 0 4 4 3 3 1 2 2 2 -0 -1 -0
-3 -4 1 -0 -1 1 0 1 1 0 4 4 2 2 2 2 3 2 5 -1 5 -1 -3 -0 1 -1 -1 -0 2 4 3 -1 -2 -3 2 13 2 2 1 -0 0 2 -1 -2 -1 2 4 2 -1
-1 -3 -0 -1 -0 -1 1 -1 1 5 -3 -3 -1 0 2 0 -1 6 6 3 -0 1 -2 -1 1 0 -2 -0 -1 1 2 -0 -1 0 1 -4 3 3 3 0 1 2 3 2 -1 -2 3 4 2
-3 -1 -2 -1 -1 -0 1 -2 1 -3 1 0 -1 3 3 3 3 4 -2 -0 -2 2 0 -3 -0 1 -1 -0 0 -0 -1 -1 1 1 2 -0 0 -1 -1 9 6 6 2 2 1 1 0 2 2
-0 -1 -0 -0 1 1 0 -1 -0 -0 -1 3 2 2 3 4 1 -1 0 -1 -4 -3 2 -2 1 0 1 -1 -2 -1 1 0 0 1 -3 -1 0 1 2 1 -5 -2 1 0 -2 -0 1 1 -0
1 1 -1 -1 0 1 1 0 -0 -2 4 2 -1 -1 1 -2 -0 2 -0 1 -1 0 -1 -0 -2 -1 -1 1 0 -3 -3 -0 0 -0 0 -0 1 -1 -2 -0 2 5 2 1 6 1 -0 3 3
0 -0 0 -1 2 -1 1 1 -1 2 3 1 1 2 1 -1 0 -1 -1 -0 -1 1 -0 1 -2 -1 -0 -2 -2 1 2 0 -4 -3 1 -1 0 1 2 -7 1 -3 7 4 0 6 1 -1 4
-0 -0 -0 0 4 0 -9 3 -2 4 1 -1 -1 -1 -1 -3 -0 0 4 -0 -1 -1 1 -0 -0 -1 -1 -0 -1 -2 -1 -1 -1 -0 -3 -2 -0 -2 -2 -3 -6 10 2 8 0 -3 2 -5 -0
1 -0 -1 -0 2 0 -7 -1 0 2 3 -0 1 -0 -2 -2 -3 -1 -3 -3 -3 -2 -2 -2 0 -1 1 -2 -3 -3 -3 -2 -1 -2 -0 -0 -4 -1 -2 -2 0 -1 -3 5 10 1 8 9 5
-0 -1 1 2 1 0 5 1 3 2 1 0 0 1 -1 2 2 -0 -4 -0 -2 1 -0 -0 1 1 1 1 -0 -0 -2 -3 -4 -2 -1 -1 -0 -1 -2 -2 0 0 -2 -4 -5 13 10 -4 8
-1 -0 1 2 0 -1 6 1 1 2 2 1 -0 -1 1 1 2 2 1 2 1 -1 -2 -1 -2 -1 -1 -0 -0 -1 -3 -2 -3 -2 -3 -1 -1 1 -2 -1 -1 2 -2 -3 12 9 11 -29 -6
-1 1 0 -1 3 -1 1 2 2 1 0 -1 1 1 3 0 -1 -0 4 1 3 -1 -2 -4 -5 -3 -3 -1 1 0 -1 -1 -0 1 -0 -2 -4 -3 1 -1 -1 1 0 -6 -3 5 -5 -1 -2
0 0 0 -1 2 -5 0 0 -0 1 -0 1 -0 -0 -2 -1 1 1 0 -0 2 2 -1 -3 -1 -1 -2 -2 -6 -1 -1 -1 -1 -3 -3 -2 2 4 -2 -1 1 0 1 -3 2 -2 30 6 1
0 1 -2 -1 0 1 1 0 -1 0 -1 -2 -0 1 1 1 -0 -1 -1 -4 -3 -3 -1 -1 -0 -0 -1 -2 -1 -3 -9 -6 -5 -2 2 5 1 -2 -3 3 -3 4 -2 -1 -2 4 -7 13 0
-0 -0 -1 1 0 1 0 2 3 1 2 2 2 0 -0 0 -2 -3 -2 -4 1 0 -1 -2 -1 1 -4 -5 -3 -5 -3 -1 -9 -6 -8 -12 -4 -0 2 -2 1 2 6 1 -0 3 2 3 7
2 -2 0 1 2 1 3 -5 1 -0 1 2 1 1 -0 1 0 -1 0 -0 -2 -3 -3 -1 1 1 1 -2 -2 -4 -6 -10 -4 -5 -5 -8 -7 -4 -1 1 -0 -2 2 -2 -2 5 8 6 1
-8 0 -1 -0 0 3 1 7 3 1 2 -1 0 0 0 -0 1 1 -2 -1 -0 -0 0 3 6 1 -2 -4 -4 -4 -0 1 1 -0 -4 -4 -3 3 0 3 1 -0 0 4 -1 0 3 10 12
-1 -1 -1 -0 -0 5 -7 4 -9 -1 -6 2 1 0 -0 0 -1 -1 1 2 3 3 3 -0 -1 -1 -1 -3 -1 -1 -1 -2 -3 -2 -7 -7 -4 -1 3 -4 -3 -5 -2 1 -2 -2 -1 3 3
7 4 1 5 5 -6 0 8 -13 0 -0 -5 -2 0 -1 -0 -1 1 1 1 1 -1 -0 1 0 -1 -3 -0 1 0 -0 1 -3 -5 -4 -3 -10 -2 -4 -10 -4 -3 0 -3 2 -3 -1 3 4
-4 -3 -3 -3 -2 -2 1 -4 -2 -1 1 0 -0 -1 -0 1 -0 -1 -2 -2 -3 -2 -1 -1 -1 -4 -3 -2 1 -2 1 -2 -0 -4 -6 -1 -9 -8 -3 1 0 1 -1 2 1 3 -2 -0 2
-3 4 -13 3 0 2 -3 0 6 3 3 2 1 1 1 1 -1 -3 -2 -2 -2 -1 -2 -3 -3 0 -1 1 -0 -3 0 -1 -4 -3 -3 -5 -1 -12 -7 1 2 1 4 2 -5 -2 -1 3 0
2 -4 7 1 1 0 -1 -1 -4 2 0 1 2 0 -1 -2 -0 0 -0 -1 -0 -0 -1 1 0 0 -2 -1 -1 -1 1 -2 1 -3 -2 -2 -4 -1 -11 -5 -5 -1 2 -1 0 -2 2 2 2
3 3 3 2 0 0 1 -5 -2 -4 -5 -3 -1 -1 -1 1 1 -0 -1 -0 -1 0 1 0 -2 -2 -3 -0 -1 1 -0 -1 -4 -2 -1 -3 -4 -1 -2 -0 -2 -1 -6 5 4 3 -3 2 3
2 -1 1 7 -5 -1 3 -10 1 -1 -2 -3 -1 0 -0 -2 -0 0 -1 0 1 0 -1 -2 -2 -0 -0 1 -0 1 2 -1 -3 -2 -0 1 -1 -2 -3 -2 -1 -1 4 -1 -10 -0 -0 1 2
Height
1520 1520 1519 1518 1522 1521 1533 1531 1531 1525 1524 1526 1525 1524 1527 1530 1533 1546 1546 1540 1537 1535 1538 1542 1544 1545 1546 1546 1546 1545 1545 1545 1544 1544 1543 1544 1544 1544 1544 1544 1544 1545 1546 1546 1545 1546 1546 1545 1545
1520 1520 1519 1518 1524 1526 1532 1530 1531 1526 1525 1525 1527 1529 1531 1535 1537 1542 1542 1540 1538 1539 1541 1543 1545 1546 1546 1545 1545 1545 1545 1545 1544 1544 1544 1544 1544 1544 1544 1544 1545 1545 1546 1547 1546 1546 1546 1546 1546
1520 1519 1520 1523 1533 1531 1531 1527 1528 1526 1524 1525 1527 1531 1536 1546 1545 1545 1546 1542 1538 1538 1538 1540 1542 1543 1545 1545 1545 1545 1544 1544 1544 1544 1543 1544 1545 1545 1544 1545 1544 1545 1546 1546 1546 1546 1546 1546 1546
1520 1521 1524 1527 1532 1532 1529 1526 1526 1525 1524 1526 1530 1536 1545 1548 1547 1546 1547 1543 1541 1538 1537 1538 1539 1540 1541 1542 1543 1544 1544 1543 1544 1543 1543 1544 1544 1545 1545 1546 1545 1546 1546 1546 1546 1546 1546 1546 1546
1520 1520 1527 1534 1534 1533 1532 1528 1525 1524 1527 1529 1529 1539 1545 1547 1545 1545 1545 1545 1542 1540 1538 1538 1539 1539 1540 1540 1541 1541 1541 1542 1543 1543 1543 1543 1543 1544 1545 1546 1545 1545 1545 1546 1546 1546 1545 1545 1546
1521 1523 1530 1531 1535 1532 1531 1530 1528 1528 1530 1531 1534 1539 1550 1549 1547 1545 1545 1545 1543 1541 1540 1538 1539 1539 1539 1539 1540 1541 1541 1542 1542 1542 1542 1542 1542 1544 1544 1545 1544 1545 1545 1545 1545 1545 1544 1544 1545
1522 1526 1534 1535 1533 1531 1531 1530 1531 1532 1532 1534 1536 1541 1551 1549 1547 1546 1546 1545 1544 1543 1542 1541 1540 1539 1539 1538 1539 1539 1540 1540 1539 1540 1540 1541 1541 1543 1543 1544 1544 1544 1544 1544 1544 1544 1543 1543 1543
1523 1527 1534 1533 1532 1530 1529 1530 1533 1532 1536 1538 1537 1544 1549 1548 1548 1548 1547 1546 1544 1543 1543 1541 1540 1539 1539 1538 1538 1537 1537 1537 1538 1538 1538 1541 1540 1540 1541 1541 1542 1542 1541 1542 1542 1542 1541 1541 1541
1523 1528 1533 1532 1534 1530 1529 1530 1534 1536 1535 1539 1543 1547 1549 1548 1549 1550 1548 1545 1545 1543 1543 1542 1541 1539 1539 1538 1538 1537 1536 1536 1537 1536 1536 1536 1536 1537 1538 1538 1538 1538 1538 1539 1539 1539 1540 1539 1540
1524 1528 1528 1530 1530 1529 1530 1532 1536 1539 1542 1547 1549 1550 1550 1549 1548 1548 1546 1544 1545 1544 1543 1542 1541 1539 1538 1537 1536 1536 1535 1534 1533 1533 1532 1533 1533 1533 1534 1534 1535 1534 1534 1536 1535 1536 1537 1537 1536
1525 1525 1530 1530 1530 1529 1530 1533 1537 1541 1548 1553 1552 1552 1550 1548 1548 1546 1545 1544 1544 1544 1543 1542 1541 1539 1537 1536 1535 1534 1533 1532 1531 1530 1529 1529 1529 1529 1529 1529 1530 1530 1530 1530 1531 1531 1532 1532 1532
1526 1526 1528 1530 1530 1530 1531 1535 1541 1544 1553 1553 1552 1551 1550 1548 1548 1546 1545 1545 1545 1544 1543 1541 1540 1539 1537 1535 1534 1532 1531 1530 1528 1527 1525 1524 1524 1524 1524 1523 1524 1523 1524 1525 1526 1527 1528 1529 1529
1527 1527 1527 1528 1530 1531 1533 1538 1542 1551 1553 1552 1553 1552 1549 1549 1548 1548 1546 1545 1544 1542 1541 1539 1539 1538 1535 1533 1531 1529 1528 1527 1525 1523 1521 1519 1518 1517 1516 1516 1517 1516 1517 1519 1520 1523 1524 1525 1526
1528 1529 1528 1527 1528 1530 1533 1543 1542 1552 1549 1550 1551 1552 1550 1551 1549 1548 1546 1543 1543 1542 1539 1537 1534 1533 1531 1529 1527 1525 1523 1521 1519 1518 1516 1514 1512 1510 1508 1507 1508 1509 1510 1512 1512 1514 1517 1519 1520
1527 1528 1527 1525 1529 1532 1532 1542 1548 1551 1551 1550 1549 1550 1550 1550 1550 1547 1545 1543 1541 1540 1538 1535 1532 1530 1527 1525 1523 1522 1520 1518 1515 1512 1509 1507 1506 1503 1501 1500 1499 1501 1502 1503 1504 1503 1506 1512 1512
1527 1528 1525 1525 1527 1532 1532 1539 1552 1552 1552 1551 1551 1551 1551 1549 1549 1546 1545 1542 1539 1538 1535 1534 1532 1529 1527 1524 1520 1517 1514 1512 1509 1506 1504 1501 1498 1495 1493 1491 1490 1491 1493 1493 1494 1495 1495 1501 1509
1529 1523 1526 1524 1526 1530 1534 1542 1550 1551 1551 1552 1553 1553 1553 1550 1549 1546 1544 1541 1538 1536 1535 1533 1530 1526 1523 1520 1517 1513 1510 1507 1503 1501 1498 1494 1491 1488 1485 1483 1483 1482 1484 1487 1486 1485 1486 1491 1495
1525 1527 1525 1518 1521 1527 1535 1544 1549 1550 1551 1552 1552 1552 1550 1548 1547 1544 1542 1540 1537 1534 1532 1530 1527 1524 1522 1518 1515 1512 1509 1504 1500 1496 1491 1487 1483 1481 1477 1474 1474 1474 1475 1477 1478 1477 1475 1473 1480
1528 1528 1524 1523 1522 1523 1534 1539 1544 1548 1550 1551 1551 1550 1549 1549 1547 1543 1541 1539 1537 1533 1529 1527 1524 1521 1518 1513 1510 1507 1504 1500 1497 1492 1488 1483 1478 1473 1470 1467 1464 1465 1466 1468 1469 1469 1467 1463 1471
1530 1529 1528 1525 1526 1524 1535 1537 1544 1546 1546 1547 1547 1547 1545 1545 1542 1542 1540 1538 1536 1533 1529 1525 1522 1518 1515 1512 1509 1506 1504 1501 1496 1491 1486 1480 1475 1470 1465 1461 1457 1456 1456 1457 1459 1461 1460 1457 1463
1529 1529 1528 1525 1528 1533 1533 1530 1537 1542 1543 1545 1544 1543 1542 1541 1539 1540 1539 1537 1535 1531 1527 1523 1520 1516 1513 1510 1507 1504 1501 1497 1492 1486 1480 1476 1471 1467 1461 1457 1452 1450 1450 1450 1450 1453 1455 1454 1455
1528 1522 1523 1525 1525 1523 1531 1513 1526 1534 1539 1543 1544 1541 1542 1542 1540 1540 1538 1536 1533 1530 1527 1523 1519 1515 1511 1507 1504 1499 1495 1491 1487 1482 1477 1472 1469 1463 1459 1453 1449 1444 1442 1442 1442 1443 1446 1447 1443
1517 1517 1518 1520 1524 1526 1526 1526 1514 1533 1534 1535 1541 1541 1541 1542 1541 1539 1537 1535 1531 1528 1526 1522 1518 1512 1508 1505 1502 1498 1494 1490 1485 1480 1475 1470 1464 1460 1454 1449 1443 1439 1436 1436 1435 1433 1432 1433 1434
1514 1517 1521 1524 1523 1521 1511 1518 1482 1521 1519 1529 1537 1539 1539 1539 1538 1537 1536 1533 1531 1528 1524 1520 1516 1512 1508 1505 1501 1497 1492 1487 1482 1476 1472 1467 1461 1454 1448 1443 1439 1435 1430 1427 1425 1423 1420 1422 1423
1515 1514 1520 1524 1525 1510 1512 1514 1483 1514 1520 1520 1528 1534 1536 1537 1536 1535 1532 1529 1527 1525 1523 1519 1514 1510 1507 1504 1499 1494 1491 1486 1480 1475 1471 1465 1459 1451 1445 1442 1436 1430 1423 1420 1416 1414 1412 1412 1413
1510 1509 1508 1513 1514 1506 1513 1503 1494 1518 1521 1523 1527 1530 1534 1534 1533 1532 1530 1528 1526 1524 1521 1518 1513 1509 1506 1503 1498 1494 1489 1485 1480 1476 1471 1465 1461 1453 1447 1441 1432 1425 1419 1412 1407 1404 1404 1405 1405
1508 1509 1502 1508 1515 1514 1497 1506 1516 1520 1524 1526 1526 1528 1531 1532 1530 1530 1529 1528 1525 1523 1520 1517 1514 1510 1506 1503 1498 1493 1489 1485 1481 1476 1471 1466 1460 1455 1446 1439 1430 1423 1414 1405 1401 1398 1395 1395 1397
1501 1501 1508 1511 1520 1512 1493 1499 1482 1513 1515 1521 1525 1526 1529 1531 1531 1528 1527 1526 1523 1522 1519 1516 1513 1509 1506 1502 1497 1493 1488 1484 1480 1475 1471 1466 1459 1454 1446 1437 1429 1420 1411 1404 1398 1393 1389 1386 1387
1500 1500 1500 1500 1501 1500 1491 1486 1497 1496 1503 1513 1521 1525 1529 1530 1529 1526 1525 1523 1521 1520 1517 1514 1512 1509 1506 1502 1497 1493 1488 1483 1479 1474 1470 1465 1460 1453 1445 1437 1428 1419 1410 1402 1395 1389 1385 1381 1379
1496 1495 1497 1499 1504 1502 1498 1491 1503 1498 1501 1511 1519 1522 1526 1528 1528 1524 1523 1521 1519 1517 1515 1513 1512 1509 1505 1501 1497 1493 1487 1482 1478 1474 1470 1464 1458 1453 1445 1437 1428 1420 1411 1402 1395 1388 1383 1378 1373